Home   Weather   Unalaska   Past weeks

Flag for USA Past Weather in Unalaska, Alaska, USA — Yesterday and Last 2 Weeks

Now
39 °F

Broken clouds.


Feels Like: 34 °F
Forecast: 38 / 43 °F
Wind: 7 mph from South

Location: Dutch Harbor

Current Time: Apr 23, 2017 at 10:12:07 am

Latest Report: Apr 23, 2017 at 9:17 am


Visibility: 10 mi

Pressure: 29.22 "Hg

Humidity: 93%

Dew Point: 37 °F

Location of UnalaskaLocation

Past Weather in Unalaska — Graph

°F

Unalaska Temperature Yesterday

Maximum temperature yesterday: 43 °F (at 12:36 pm)
Minimum temperature yesterday: 38 °F (at 11:56 pm)
Average temperature yesterday: 41 °F

High & Low Weather Summary for the Past Weeks

 TemperatureHumidityPressure
High45 °F (Apr 12, 6:16 am)100% (Apr 23, 8:00 am)30.18 "Hg (Apr 23, 8:00 am)
Low33 °F (Apr 8, 8:56 am)56% (Apr 21, 6:56 pm)29.21 "Hg (Apr 23, 6:19 am)
Average39 °F79%29.81 "Hg
* Reported Apr 8 8:08 am — Apr 23 8:58 am, Unalaska, Weather by CustomWeather, © 2017

Note: Actual official high and low records may vary slightly from our data, if they occured in-between our weather recording intervals... More about our weather records

Advertising

Unalaska Weather History for the Previous 24 Hours

Scroll right to see more
 ConditionsComfort  
Time TempWeatherWind HumidityBarometerVisibility
8:58 am
Sun, Apr 23
39 °FBroken clouds.8 mph93%29.22 "Hg10 mi
8:44 am39 °FBroken clouds.No wind93%29.21 "Hg10 mi
8:38 am39 °FBroken clouds.5 mph93%29.21 "Hg10 mi
8:02 am37 °FLight rain. Mostly cloudy.3 mph100%29.21 "Hg8 mi
8:00 am37 °FLight rain. Partly sunny.3 mph100%29.21 "Hg8 mi
6:56 am38 °FLight rain. Mostly cloudy.3 mph97%29.21 "Hg9 mi
6:19 am39 °FFog.No wind93%29.21 "Hg5 mi
5:56 am39 °FLight rain. Mostly cloudy.3 mph93%29.22 "Hg7 mi
5:16 am39 °FLight rain. Overcast.No wind93%29.22 "Hg9 mi
4:56 am39 °FLight rain. Mostly cloudy.5 mph93%29.22 "Hg10 mi
3:56 am38 °FLight rain. Fog.No wind97%29.23 "Hg4 mi
2:56 am38 °FOvercast.5 mph93%29.23 "Hg10 mi
2:12 am37 °FMostly cloudy.6 mph93%29.24 "Hg10 mi
1:56 am38 °FMostly cloudy.7 mph93%29.25 "Hg10 mi
12:56 am38 °FOvercast.8 mph90%29.25 "Hg10 mi
11:56 pm
Sat, Apr 22
38 °FMostly cloudy.7 mph90%29.26 "Hg10 mi
10:56 pm39 °FLight rain. Mostly cloudy.6 mph86%29.26 "Hg10 mi
9:56 pm40 °FLight rain. More clouds than sun.6 mph83%29.25 "Hg10 mi
8:56 pm40 °FLight rain. Overcast.7 mph83%29.26 "Hg10 mi
7:56 pm42 °FLight rain. Mostly cloudy.5 mph82%29.26 "Hg10 mi
7:08 pm43 °FMore clouds than sun.6 mph81%29.27 "Hg10 mi
6:56 pm42 °FCloudy.7 mph82%29.27 "Hg10 mi
6:08 pm43 °FCloudy.8 mph81%29.28 "Hg10 mi
5:56 pm42 °FCloudy.3 mph85%29.28 "Hg10 mi
5:05 pm43 °FLight rain. Fog.6 mph87%29.30 "Hg6 mi
3:56 pm42 °FLight rain. Cloudy.9 mph89%29.33 "Hg8 mi
3:22 pm43 °FLight rain. Fog.10 mph87%29.34 "Hg6 mi
2:58 pm41 °FLight rain. Fog.7 mph93%29.35 "Hg6 mi
1:56 pm41 °FFog.10 mph89%29.39 "Hg3 mi
1:31 pm41 °FLight rain. Fog.14 mph87%29.39 "Hg3 mi
12:56 pm41 °FLight rain. Fog.9 mph86%29.41 "Hg4 mi
12:36 pm43 °FLight rain. Fog.13 mph81%29.42 "Hg4 mi
12:21 pm41 °FLight rain. Fog.14 mph87%29.42 "Hg4 mi
11:56 am41 °FLight rain. Fog.13 mph89%29.43 "Hg3 mi
10:56 am40 °FLight rain. Fog.16 mph89%29.45 "Hg3 mi
10:37 am41 °FLight rain. Fog.14 mph87%29.46 "Hg3 mi
Weather by CustomWeather, © 2017

See weather overviewHow to use our weather pages